This is the latest recevied weather packets stored in our database for station/object DM2KB-13. If no packets are shown the sender has not sent any weather packets the latest 1 day(s).
| Time | Temp. | Humidity | Pressure | Rain* | Wind** | Luminosity | Snow |
|---|---|---|---|---|---|---|---|
| 1777986006 | 11.11° C | 98% | 1008.3 hPa | 0 mm | 0.89 m/s, 16° | 120 W/m² | - |
| 1777985706 | 11.11° C | 98% | 1008.3 hPa | 0.25 mm | 0.89 m/s, 33° | 111 W/m² | - |
| 1777985406 | 11.67° C | 98% | 1008.5 hPa | 0.25 mm | 0.89 m/s, 9° | 98 W/m² | - |
| 1777985105 | 11.67° C | 98% | 1008.4 hPa | 0.25 mm | 0.45 m/s, 45° | 88 W/m² | - |
| 1777984805 | 11.67° C | 98% | 1008.5 hPa | 0.25 mm | 0.45 m/s, 68° | 72 W/m² | - |
| 1777984505 | 11.67° C | 98% | 1008.5 hPa | 0.25 mm | 0.45 m/s, 68° | 93 W/m² | - |
| 1777984204 | 11.11° C | 98% | 1008.5 hPa | 0.25 mm | 0.89 m/s, 25° | 113 W/m² | - |
| 1777983904 | 11.11° C | 98% | 1008.5 hPa | 0.25 mm | 0.89 m/s, 45° | 111 W/m² | - |
| 1777983604 | 11.11° C | 98% | 1008.6 hPa | 0.25 mm | 0.89 m/s, 9° | 114 W/m² | - |
| 1777983304 | 11.11° C | 98% | 1008.6 hPa | 0.25 mm | 0.89 m/s, 37° | 93 W/m² | - |
| 1777983003 | 11.11° C | 98% | 1008.6 hPa | 0.25 mm | 0.45 m/s, 46° | 81 W/m² | - |
| 1777982703 | 11.11° C | 98% | 1008.6 hPa | 0.25 mm | 0.45 m/s, 347° | 118 W/m² | - |
| 1777982403 | 11.11° C | 98% | 1008.6 hPa | 0.25 mm | 0.45 m/s, 47° | 116 W/m² | - |
| 1777982102 | 11.11° C | 98% | 1008.7 hPa | 0 mm | 0.89 m/s, 48° | 132 W/m² | - |
| 1777981802 | 11.11° C | 98% | 1008.6 hPa | 0 mm | 0.89 m/s, 19° | 141 W/m² | - |
| 1777981502 | 11.11° C | 98% | 1008.7 hPa | 0 mm | 0.89 m/s, 12° | 127 W/m² | - |
| 1777981202 | 11.11° C | 98% | 1008.7 hPa | 0 mm | 0.89 m/s, 26° | 118 W/m² | - |
| 1777980901 | 11.11° C | 98% | 1008.7 hPa | 0 mm | 1.34 m/s, 347° | 130 W/m² | - |
| 1777980601 | 11.11° C | 98% | 1008.7 hPa | 0 mm | 1.34 m/s, 13° | 113 W/m² | - |
| 1777980301 | 11.11° C | 98% | 1008.7 hPa | 0 mm | 1.34 m/s, 1° | 141 W/m² | - |
| 1777980000 | 11.11° C | 98% | 1008.7 hPa | 0 mm | 1.34 m/s, 22° | 160 W/m² | - |
| 1777979700 | 11.11° C | 98% | 1008.7 hPa | 0 mm | 0.89 m/s, 20° | 146 W/m² | - |
| 1777979400 | 11.11° C | 98% | 1008.7 hPa | 0 mm | 0.89 m/s, 46° | 142 W/m² | - |
| 1777979100 | 11.11° C | 98% | 1008.7 hPa | 0 mm | 0.89 m/s, 93° | 193 W/m² | - |
| 1777978799 | 11.11° C | 98% | 1008.7 hPa | 0 mm | 0.89 m/s, 9° | 153 W/m² | - |
* Rain latest hour (hover to see other rain measurements)
** Current wind speed in m/s (hover to see current wind gust speed)